Time,TemperatureF,DewpointF,PressureIn,WindDirection,WindDirectionDegrees,WindSpeedMPH,WindSpeedGustMPH,Humidity,HourlyPrecipIn,Conditions,Clouds,dailyrainin,SoftwareType,DateUTC
2013-09-10 00:01:00,79.4,69.2,29.97,North,360,6.0,10.0,71,0.00,,---,0.00,VWS V14.00,2013-09-10 06:01:00,
2013-09-10 00:06:00,79.3,69.5,29.97,North,360,10.0,13.0,72,0.00,,---,0.00,VWS V14.00,2013-09-10 06:06:00,
2013-09-10 00:11:00,79.3,69.5,29.97,North,360,9.0,13.0,72,0.00,,---,0.00,VWS V14.00,2013-09-10 06:11:00,
2013-09-10 00:16:00,79.2,69.4,29.98,North,360,9.0,16.0,72,0.00,,---,0.00,VWS V14.00,2013-09-10 06:16:00,
2013-09-10 00:21:00,79.1,69.3,29.97,North,360,6.0,16.0,72,0.00,,---,0.00,VWS V14.00,2013-09-10 06:21:00,
2013-09-10 00:26:00,79.0,69.2,29.98,North,360,11.0,16.0,72,0.00,,---,0.00,VWS V14.00,2013-09-10 06:26:00,
2013-09-10 00:31:00,78.9,69.1,29.98,North,360,11.0,11.0,72,0.00,,---,0.00,VWS V14.00,2013-09-10 06:31:00,
2013-09-10 00:36:00,78.9,69.5,29.98,North,360,11.0,14.0,73,0.00,,---,0.00,VWS V14.00,2013-09-10 06:36:00,
2013-09-10 00:41:00,78.9,69.5,29.98,North,360,5.0,14.0,73,0.00,,---,0.00,VWS V14.00,2013-09-10 06:41:00,
2013-09-10 00:46:00,78.8,69.4,29.98,North,360,6.0,14.0,73,0.00,,---,0.00,VWS V14.00,2013-09-10 06:46:00,
2013-09-10 00:51:00,78.7,69.3,29.98,North,360,10.0,14.0,73,0.00,,---,0.00,VWS V14.00,2013-09-10 06:51:00,
2013-09-10 00:56:00,78.6,69.2,29.98,North,360,9.0,14.0,73,0.00,,---,0.00,VWS V14.00,2013-09-10 06:56:00,
2013-09-10 01:01:00,78.6,69.2,29.98,North,360,7.0,14.0,73,0.00,,---,0.00,VWS V14.00,2013-09-10 07:01:00,
2013-09-10 01:06:00,78.5,69.5,29.98,North,360,9.0,14.0,74,0.00,,---,0.00,VWS V14.00,2013-09-10 07:06:00,
2013-09-10 01:11:00,78.5,69.5,29.98,North,360,9.0,14.0,74,0.00,,---,0.00,VWS V14.00,2013-09-10 07:11:00,
2013-09-10 01:16:00,78.4,69.4,29.98,North,360,5.0,14.0,74,0.00,,---,0.00,VWS V14.00,2013-09-10 07:16:00,
2013-09-10 01:21:00,78.3,69.3,29.98,North,360,9.0,14.0,74,0.00,,---,0.00,VWS V14.00,2013-09-10 07:21:00,
2013-09-10 01:26:00,78.2,69.2,29.98,North,360,6.0,14.0,74,0.00,,---,0.00,VWS V14.00,2013-09-10 07:26:00,
2013-09-10 01:31:00,78.1,69.1,29.98,North,360,6.0,6.0,74,0.00,,---,0.00,VWS V14.00,2013-09-10 07:31:00,
2013-09-10 01:36:00,78.1,69.5,29.98,North,360,9.0,11.0,75,0.00,,---,0.00,VWS V14.00,2013-09-10 07:36:00,
2013-09-10 01:41:00,78.0,69.4,29.98,North,360,7.0,14.0,75,0.00,,---,0.00,VWS V14.00,2013-09-10 07:41:00,
2013-09-10 01:46:00,77.9,69.3,29.99,North,360,5.0,14.0,75,0.00,,---,0.00,VWS V14.00,2013-09-10 07:46:00,
2013-09-10 01:51:00,77.8,69.2,29.99,North,360,5.0,14.0,75,0.00,,---,0.00,VWS V14.00,2013-09-10 07:51:00,
2013-09-10 01:56:00,77.7,69.2,29.99,North,360,6.0,14.0,75,0.00,,---,0.00,VWS V14.00,2013-09-10 07:56:00,
2013-09-10 02:01:00,77.6,69.4,29.99,North,360,5.0,6.0,76,0.00,,---,0.00,VWS V14.00,2013-09-10 08:01:00,
2013-09-10 02:06:00,77.6,69.4,29.99,North,360,4.0,10.0,76,0.00,,---,0.00,VWS V14.00,2013-09-10 08:06:00,
2013-09-10 02:11:00,77.5,69.3,29.99,North,360,8.0,10.0,76,0.00,,---,0.00,VWS V14.00,2013-09-10 08:11:00,
2013-09-10 02:16:00,77.5,69.3,29.99,North,360,6.0,10.0,76,0.00,,---,0.00,VWS V14.00,2013-09-10 08:16:00,
2013-09-10 02:21:00,77.4,69.2,29.99,North,360,5.0,10.0,76,0.00,,---,0.00,VWS V14.00,2013-09-10 08:21:00,
2013-09-10 02:26:00,77.4,69.2,29.99,North,360,4.0,10.0,76,0.00,,---,0.00,VWS V14.00,2013-09-10 08:26:00,
2013-09-10 02:31:00,77.3,69.5,30.00,North,360,5.0,5.0,77,0.00,,---,0.00,VWS V14.00,2013-09-10 08:31:00,
2013-09-10 02:36:00,77.2,69.4,30.00,North,360,6.0,9.0,77,0.00,,---,0.00,VWS V14.00,2013-09-10 08:36:00,
2013-09-10 02:41:00,77.1,69.3,30.00,North,360,6.0,9.0,77,0.00,,---,0.00,VWS V14.00,2013-09-10 08:41:00,
2013-09-10 02:46:00,77.0,69.2,30.00,North,360,2.0,9.0,77,0.00,,---,0.00,VWS V14.00,2013-09-10 08:46:00,
2013-09-10 02:51:00,77.0,69.6,30.00,North,360,4.0,10.0,78,0.00,,---,0.00,VWS V14.00,2013-09-10 08:51:00,
2013-09-10 02:56:00,76.9,69.5,30.00,North,360,3.0,10.0,78,0.00,,---,0.00,VWS V14.00,2013-09-10 08:56:00,
2013-09-10 03:01:00,76.9,69.5,30.00,North,360,5.0,12.0,78,0.00,,---,0.00,VWS V14.00,2013-09-10 09:01:00,
2013-09-10 03:06:00,76.8,69.4,30.00,North,360,7.0,11.0,78,0.00,,---,0.00,VWS V14.00,2013-09-10 09:06:00,
2013-09-10 03:11:00,76.8,69.4,30.00,North,360,5.0,11.0,78,0.00,,---,0.00,VWS V14.00,2013-09-10 09:11:00,
2013-09-10 03:16:00,76.8,69.4,30.00,North,360,6.0,11.0,78,0.00,,---,0.00,VWS V14.00,2013-09-10 09:16:00,
2013-09-10 03:21:00,76.8,69.8,30.00,North,360,6.0,11.0,79,0.00,,---,0.00,VWS V14.00,2013-09-10 09:21:00,
2013-09-10 03:26:00,76.8,69.8,30.00,North,360,5.0,11.0,79,0.00,,---,0.00,VWS V14.00,2013-09-10 09:26:00,
2013-09-10 03:31:00,76.7,69.7,30.00,North,360,5.0,11.0,79,0.00,,---,0.00,VWS V14.00,2013-09-10 09:31:00,
2013-09-10 03:36:00,76.6,69.6,30.00,North,360,2.0,5.0,79,0.00,,---,0.00,VWS V14.00,2013-09-10 09:36:00,
2013-09-10 03:41:00,76.4,69.4,30.00,North,360,3.0,6.0,79,0.00,,---,0.00,VWS V14.00,2013-09-10 09:41:00,
2013-09-10 03:46:00,76.2,69.6,30.00,North,360,4.0,6.0,80,0.00,,---,0.00,VWS V14.00,2013-09-10 09:46:00,
2013-09-10 03:51:00,76.1,69.5,30.00,North,360,5.0,8.0,80,0.00,,---,0.00,VWS V14.00,2013-09-10 09:51:00,
2013-09-10 03:56:00,76.1,69.5,30.00,North,360,3.0,8.0,80,0.00,,---,0.00,VWS V14.00,2013-09-10 09:56:00,
2013-09-10 04:01:00,76.0,69.4,30.01,North,360,4.0,8.0,80,0.00,,---,0.00,VWS V14.00,2013-09-10 10:01:00,
2013-09-10 04:06:00,75.7,69.1,30.01,North,360,4.0,5.0,80,0.00,,---,0.00,VWS V14.00,2013-09-10 10:06:00,
2013-09-10 04:11:00,75.3,69.1,30.00,North,360,3.0,5.0,81,0.00,,---,0.00,VWS V14.00,2013-09-10 10:11:00,
2013-09-10 04:16:00,75.0,69.1,30.01,North,360,4.0,5.0,82,0.00,,---,0.00,VWS V14.00,2013-09-10 10:16:00,
2013-09-10 04:21:00,74.9,69.0,30.01,North,360,4.0,5.0,82,0.00,,---,0.00,VWS V14.00,2013-09-10 10:21:00,
2013-09-10 04:26:00,74.8,69.3,30.01,North,360,3.0,5.0,83,0.00,,---,0.00,VWS V14.00,2013-09-10 10:26:00,
2013-09-10 04:31:00,74.6,69.1,30.01,North,360,4.0,6.0,83,0.00,,---,0.00,VWS V14.00,2013-09-10 10:31:00,
2013-09-10 04:36:00,74.5,69.0,30.01,North,360,4.0,5.0,83,0.00,,---,0.00,VWS V14.00,2013-09-10 10:36:00,
2013-09-10 04:41:00,74.4,68.9,30.01,North,360,4.0,5.0,83,0.00,,---,0.00,VWS V14.00,2013-09-10 10:41:00,
2013-09-10 04:46:00,74.3,69.2,30.01,North,360,3.0,5.0,84,0.00,,---,0.00,VWS V14.00,2013-09-10 10:46:00,
2013-09-10 04:51:00,74.2,69.1,30.01,North,360,4.0,5.0,84,0.00,,---,0.00,VWS V14.00,2013-09-10 10:51:00,
2013-09-10 04:56:00,74.1,69.0,30.01,North,360,5.0,5.0,84,0.00,,---,0.00,VWS V14.00,2013-09-10 10:56:00,
2013-09-10 05:01:00,74.0,68.9,30.01,North,360,4.0,5.0,84,0.00,,---,0.00,VWS V14.00,2013-09-10 11:01:00,
2013-09-10 05:06:00,74.0,68.9,30.01,North,360,3.0,5.0,84,0.00,,---,0.00,VWS V14.00,2013-09-10 11:06:00,
2013-09-10 05:11:00,74.1,69.0,30.01,North,360,4.0,5.0,84,0.00,,---,0.00,VWS V14.00,2013-09-10 11:11:00,
2013-09-10 05:16:00,74.0,68.9,30.01,North,360,4.0,5.0,84,0.00,,---,0.00,VWS V14.00,2013-09-10 11:16:00,
2013-09-10 05:21:00,74.1,69.0,30.01,North,360,3.0,5.0,84,0.00,,---,0.00,VWS V14.00,2013-09-10 11:21:00,
2013-09-10 05:26:00,74.3,69.2,30.01,North,360,4.0,5.0,84,0.00,,---,0.00,VWS V14.00,2013-09-10 11:26:00,
2013-09-10 05:31:00,74.4,69.3,30.01,North,360,3.0,5.0,84,0.00,,---,0.00,VWS V14.00,2013-09-10 11:31:00,
2013-09-10 05:36:00,74.4,69.3,30.01,North,360,3.0,5.0,84,0.00,,---,0.00,VWS V14.00,2013-09-10 11:36:00,
2013-09-10 05:41:00,74.4,69.3,30.01,North,360,4.0,5.0,84,0.00,,---,0.00,VWS V14.00,2013-09-10 11:41:00,
2013-09-10 05:46:00,74.6,69.4,30.02,North,360,3.0,5.0,84,0.00,,---,0.00,VWS V14.00,2013-09-10 11:46:00,
2013-09-10 05:51:00,74.5,69.0,30.02,North,360,4.0,5.0,83,0.00,,---,0.00,VWS V14.00,2013-09-10 11:51:00,
2013-09-10 05:56:00,74.3,69.2,30.03,North,360,4.0,5.0,84,0.00,,---,0.00,VWS V14.00,2013-09-10 11:56:00,
2013-09-10 06:01:00,74.2,69.1,30.03,North,360,3.0,5.0,84,0.00,,---,0.00,VWS V14.00,2013-09-10 12:01:00,
2013-09-10 06:06:00,74.2,69.4,30.03,North,360,4.0,6.0,85,0.00,,---,0.00,VWS V14.00,2013-09-10 12:06:00,
2013-09-10 06:11:00,74.2,69.4,30.04,North,360,4.0,6.0,85,0.00,,---,0.00,VWS V14.00,2013-09-10 12:11:00,
2013-09-10 06:16:00,74.3,69.5,30.04,North,360,2.0,6.0,85,0.00,,---,0.00,VWS V14.00,2013-09-10 12:16:00,
2013-09-10 06:21:00,74.2,69.4,30.04,North,360,4.0,6.0,85,0.00,,---,0.00,VWS V14.00,2013-09-10 12:21:00,
2013-09-10 06:26:00,74.0,69.2,30.04,North,360,3.0,6.0,85,0.00,,---,0.00,VWS V14.00,2013-09-10 12:26:00,
2013-09-10 06:31:00,73.7,68.9,30.05,North,360,5.0,6.0,85,0.00,,---,0.00,VWS V14.00,2013-09-10 12:31:00,
2013-09-10 06:36:00,73.4,69.0,30.05,North,360,3.0,7.0,86,0.00,,---,0.00,VWS V14.00,2013-09-10 12:36:00,
2013-09-10 06:41:00,73.3,68.9,30.05,North,360,4.0,7.0,86,0.00,,---,0.00,VWS V14.00,2013-09-10 12:41:00,
2013-09-10 06:45:00,73.0,68.6,30.05,North,360,5.0,9.0,86,0.00,,---,0.00,VWS V14.00,2013-09-10 12:45:00,
2013-09-10 06:50:00,73.0,68.6,30.05,North,360,4.0,9.0,86,0.00,,---,0.00,VWS V14.00,2013-09-10 12:50:00,
2013-09-10 06:55:00,73.1,69.0,30.05,North,360,5.0,9.0,87,0.00,,---,0.00,VWS V14.00,2013-09-10 12:55:00,
2013-09-10 07:00:00,73.2,68.8,30.05,North,360,5.0,9.0,86,0.00,,---,0.00,VWS V14.00,2013-09-10 13:00:00,
2013-09-10 07:05:00,73.2,68.8,30.06,North,360,5.0,10.0,86,0.00,,---,0.00,VWS V14.00,2013-09-10 13:05:00,
2013-09-10 07:10:00,73.3,68.9,30.06,North,360,6.0,10.0,86,0.00,,---,0.00,VWS V14.00,2013-09-10 13:10:00,
2013-09-10 07:15:00,73.6,69.2,30.06,North,360,3.0,10.0,86,0.00,,---,0.00,VWS V14.00,2013-09-10 13:15:00,
2013-09-10 07:20:00,74.1,69.7,30.06,North,360,4.0,10.0,86,0.00,,---,0.00,VWS V14.00,2013-09-10 13:20:00,
2013-09-10 07:25:00,74.7,69.9,30.06,North,360,4.0,10.0,85,0.00,,---,0.00,VWS V14.00,2013-09-10 13:25:00,
2013-09-10 07:30:00,75.3,70.5,30.06,North,360,4.0,10.0,85,0.00,,---,0.00,VWS V14.00,2013-09-10 13:30:00,
2013-09-10 07:36:00,76.0,70.5,30.06,North,360,3.0,6.0,83,0.00,,---,0.00,VWS V14.00,2013-09-10 13:36:00,
2013-09-10 07:41:00,76.7,70.8,30.07,North,360,2.0,6.0,82,0.00,,---,0.00,VWS V14.00,2013-09-10 13:41:00,
2013-09-10 07:45:00,77.0,70.7,30.07,North,360,7.0,9.0,81,0.00,,---,0.00,VWS V14.00,2013-09-10 13:45:00,
2013-09-10 07:50:00,77.3,71.0,30.07,North,360,9.0,9.0,81,0.00,,---,0.00,VWS V14.00,2013-09-10 13:50:00,
2013-09-10 07:55:00,77.6,71.3,30.07,North,360,6.0,11.0,81,0.00,,---,0.00,VWS V14.00,2013-09-10 13:55:00,
2013-09-10 08:00:00,77.6,70.9,30.07,North,360,7.0,11.0,80,0.00,,---,0.00,VWS V14.00,2013-09-10 14:00:00,
2013-09-10 08:05:00,77.5,71.2,30.07,North,360,7.0,10.0,81,0.00,,---,0.00,VWS V14.00,2013-09-10 14:05:00,
2013-09-10 08:10:00,77.5,71.2,30.07,North,360,7.0,11.0,81,0.00,,---,0.00,VWS V14.00,2013-09-10 14:10:00,
2013-09-10 08:15:00,77.8,71.5,30.08,North,360,6.0,11.0,81,0.00,,---,0.00,VWS V14.00,2013-09-10 14:15:00,
2013-09-10 08:20:00,78.0,71.3,30.08,North,360,4.0,11.0,80,0.00,,---,0.00,VWS V14.00,2013-09-10 14:20:00,
2013-09-10 08:25:00,78.1,71.4,30.07,North,360,5.0,11.0,80,0.00,,---,0.00,VWS V14.00,2013-09-10 14:25:00,
2013-09-10 08:30:00,78.4,71.7,30.08,North,360,6.0,11.0,80,0.00,,---,0.00,VWS V14.00,2013-09-10 14:30:00,
2013-09-10 08:35:00,78.3,71.6,30.08,North,360,6.0,10.0,80,0.00,,---,0.00,VWS V14.00,2013-09-10 14:35:00,
2013-09-10 08:40:00,78.2,71.5,30.08,North,360,5.0,10.0,80,0.00,,---,0.00,VWS V14.00,2013-09-10 14:40:00,
2013-09-10 08:45:00,78.4,72.1,30.08,North,360,6.0,10.0,81,0.00,,---,0.00,VWS V14.00,2013-09-10 14:45:00,
2013-09-10 08:50:00,78.7,72.0,30.08,North,360,6.0,11.0,80,0.00,,---,0.00,VWS V14.00,2013-09-10 14:50:00,
2013-09-10 08:55:00,78.9,72.2,30.08,North,360,5.0,11.0,80,0.00,,---,0.00,VWS V14.00,2013-09-10 14:55:00,
2013-09-10 09:00:00,79.1,72.4,30.08,North,360,7.0,11.0,80,0.00,,---,0.00,VWS V14.00,2013-09-10 15:00:00,
2013-09-10 09:05:00,79.2,72.5,30.08,North,360,8.0,10.0,80,0.00,,---,0.00,VWS V14.00,2013-09-10 15:05:00,
2013-09-10 09:10:00,79.6,72.9,30.08,North,360,2.0,10.0,80,0.00,,---,0.00,VWS V14.00,2013-09-10 15:10:00,
2013-09-10 09:15:00,80.3,72.8,30.08,North,360,10.0,10.0,78,0.00,,---,0.00,VWS V14.00,2013-09-10 15:15:00,
2013-09-10 09:20:00,80.8,72.9,30.08,North,360,6.0,11.0,77,0.00,,---,0.00,VWS V14.00,2013-09-10 15:20:00,
2013-09-10 09:25:00,81.2,72.5,30.08,North,360,1.0,13.0,75,0.00,,---,0.00,VWS V14.00,2013-09-10 15:25:00,
2013-09-10 09:30:00,81.6,72.9,30.08,North,360,8.0,13.0,75,0.00,,---,0.00,VWS V14.00,2013-09-10 15:30:00,
2013-09-10 09:35:00,81.3,72.6,30.08,North,360,5.0,11.0,75,0.00,,---,0.00,VWS V14.00,2013-09-10 15:35:00,
2013-09-10 09:40:00,82.0,72.9,30.08,North,360,7.0,11.0,74,0.00,,---,0.00,VWS V14.00,2013-09-10 15:40:00,
2013-09-10 09:45:00,82.8,72.9,30.08,North,360,6.0,11.0,72,0.00,,---,0.00,VWS V14.00,2013-09-10 15:45:00,
2013-09-10 09:50:00,83.3,72.5,30.08,North,360,10.0,11.0,70,0.00,,---,0.00,VWS V14.00,2013-09-10 15:50:00,
2013-09-10 09:55:00,83.6,72.4,30.08,North,360,5.0,11.0,69,0.00,,---,0.00,VWS V14.00,2013-09-10 15:55:00,
2013-09-10 10:00:00,83.6,71.5,30.08,North,360,6.0,14.0,67,0.00,,---,0.00,VWS V14.00,2013-09-10 16:00:00,
2013-09-10 10:05:00,83.4,71.7,30.08,North,360,11.0,13.0,68,0.00,,---,0.00,VWS V14.00,2013-09-10 16:05:00,
2013-09-10 10:10:00,83.3,71.2,30.08,North,360,5.0,13.0,67,0.00,,---,0.00,VWS V14.00,2013-09-10 16:10:00,
2013-09-10 10:15:00,83.8,71.2,30.09,North,360,7.0,13.0,66,0.00,,---,0.00,VWS V14.00,2013-09-10 16:15:00,
2013-09-10 10:20:00,83.8,71.2,30.09,North,360,9.0,13.0,66,0.00,,---,0.00,VWS V14.00,2013-09-10 16:20:00,
2013-09-10 10:25:00,83.7,71.1,30.09,North,360,9.0,13.0,66,0.00,,---,0.00,VWS V14.00,2013-09-10 16:25:00,
2013-09-10 10:30:00,84.1,70.6,30.09,North,360,9.0,15.0,64,0.00,,---,0.00,VWS V14.00,2013-09-10 16:30:00,
2013-09-10 10:35:00,84.2,70.7,30.09,North,360,5.0,11.0,64,0.00,,---,0.00,VWS V14.00,2013-09-10 16:35:00,
2013-09-10 10:40:00,85.4,70.9,30.08,North,360,5.0,13.0,62,0.00,,---,0.00,VWS V14.00,2013-09-10 16:40:00,
2013-09-10 10:45:00,85.2,70.7,30.09,North,360,6.0,13.0,62,0.00,,---,0.00,VWS V14.00,2013-09-10 16:45:00,
2013-09-10 10:50:00,85.6,70.6,30.09,North,360,6.0,13.0,61,0.00,,---,0.00,VWS V14.00,2013-09-10 16:50:00,
2013-09-10 10:55:00,85.7,71.2,30.09,North,360,8.0,17.0,62,0.00,,---,0.00,VWS V14.00,2013-09-10 16:55:00,
2013-09-10 11:00:00,85.6,70.6,30.08,North,360,7.0,17.0,61,0.00,,---,0.00,VWS V14.00,2013-09-10 17:00:00,
2013-09-10 11:05:00,86.1,70.6,30.08,North,360,1.0,7.0,60,0.00,,---,0.00,VWS V14.00,2013-09-10 17:05:00,
2013-09-10 11:10:00,86.1,70.1,30.08,North,360,6.0,15.0,59,0.00,,---,0.00,VWS V14.00,2013-09-10 17:10:00,
2013-09-10 11:15:00,87.2,69.1,30.08,North,360,9.0,20.0,55,0.00,,---,0.00,VWS V14.00,2013-09-10 17:15:00,
2013-09-10 11:21:00,87.5,68.8,30.08,North,360,6.0,20.0,54,0.00,,---,0.00,VWS V14.00,2013-09-10 17:21:00,
2013-09-10 11:25:00,87.4,67.1,30.08,North,360,10.0,21.0,51,0.00,,---,0.00,VWS V14.00,2013-09-10 17:25:00,
2013-09-10 11:30:00,87.7,66.8,30.08,North,360,10.0,21.0,50,0.00,,---,0.00,VWS V14.00,2013-09-10 17:30:00,
2013-09-10 11:36:00,87.9,66.9,30.07,North,360,7.0,18.0,50,0.00,,---,0.00,VWS V14.00,2013-09-10 17:36:00,
2013-09-10 11:41:00,87.8,68.0,30.07,North,360,11.0,18.0,52,0.00,,---,0.00,VWS V14.00,2013-09-10 17:41:00,
2013-09-10 11:46:00,87.9,68.1,30.07,North,360,9.0,18.0,52,0.00,,---,0.00,VWS V14.00,2013-09-10 17:46:00,
2013-09-10 11:51:00,88.4,68.0,30.07,North,360,7.0,20.0,51,0.00,,---,0.00,VWS V14.00,2013-09-10 17:51:00,
2013-09-10 11:56:00,88.8,67.2,30.07,North,360,6.0,20.0,49,0.00,,---,0.00,VWS V14.00,2013-09-10 17:56:00,
2013-09-10 12:01:00,88.5,66.9,30.07,North,360,12.0,22.0,49,0.00,,---,0.00,VWS V14.00,2013-09-10 18:01:00,
2013-09-10 12:06:00,88.7,67.1,30.07,North,360,9.0,14.0,49,0.00,,---,0.00,VWS V14.00,2013-09-10 18:06:00,
2013-09-10 12:11:00,90.5,67.5,30.06,North,360,14.0,17.0,47,0.00,,---,0.00,VWS V14.00,2013-09-10 18:11:00,
2013-09-10 12:16:00,89.5,67.2,30.06,North,360,9.0,18.0,48,0.00,,---,0.00,VWS V14.00,2013-09-10 18:16:00,
2013-09-10 12:20:00,89.0,66.8,30.06,North,360,9.0,18.0,48,0.00,,---,0.00,VWS V14.00,2013-09-10 18:20:00,
2013-09-10 12:26:00,89.1,66.9,30.06,North,360,18.0,21.0,48,0.00,,---,0.00,VWS V14.00,2013-09-10 18:26:00,
2013-09-10 12:30:00,90.1,66.6,30.06,North,360,15.0,21.0,46,0.00,,---,0.00,VWS V14.00,2013-09-10 18:30:00,
2013-09-10 12:35:00,90.4,66.8,30.06,North,360,6.0,13.0,46,0.00,,---,0.00,VWS V14.00,2013-09-10 18:35:00,
2013-09-10 12:40:00,90.7,66.5,30.05,North,360,11.0,18.0,45,0.00,,---,0.00,VWS V14.00,2013-09-10 18:40:00,
2013-09-10 12:45:00,91.2,67.6,30.05,North,360,9.0,18.0,46,0.00,,---,0.00,VWS V14.00,2013-09-10 18:45:00,
2013-09-10 12:51:00,90.1,66.6,30.05,North,360,9.0,18.0,46,0.00,,---,0.00,VWS V14.00,2013-09-10 18:51:00,
2013-09-10 12:56:00,89.9,65.7,30.05,North,360,15.0,21.0,45,0.00,,---,0.00,VWS V14.00,2013-09-10 18:56:00,
2013-09-10 13:01:00,89.9,66.4,30.05,North,360,16.0,21.0,46,0.00,,---,0.00,VWS V14.00,2013-09-10 19:01:00,
2013-09-10 13:05:00,89.9,65.7,30.05,North,360,9.0,20.0,45,0.00,,---,0.00,VWS V14.00,2013-09-10 19:05:00,
2013-09-10 13:10:00,90.7,65.8,30.04,North,360,17.0,20.0,44,0.00,,---,0.00,VWS V14.00,2013-09-10 19:10:00,
2013-09-10 13:15:00,90.9,66.6,30.04,North,360,5.0,20.0,45,0.00,,---,0.00,VWS V14.00,2013-09-10 19:15:00,
2013-09-10 13:20:00,91.5,66.5,30.03,North,360,10.0,20.0,44,0.00,,---,0.00,VWS V14.00,2013-09-10 19:20:00,
2013-09-10 13:25:00,91.2,66.3,30.03,North,360,10.0,20.0,44,0.00,,---,0.00,VWS V14.00,2013-09-10 19:25:00,
2013-09-10 13:30:00,90.4,66.2,30.03,North,360,9.0,20.0,45,0.00,,---,0.00,VWS V14.00,2013-09-10 19:30:00,
2013-09-10 13:35:00,90.5,66.9,30.03,North,360,13.0,14.0,46,0.00,,---,0.00,VWS V14.00,2013-09-10 19:35:00,
2013-09-10 13:40:00,91.1,64.1,30.03,North,360,11.0,20.0,41,0.00,,---,0.00,VWS V14.00,2013-09-10 19:40:00,
2013-09-10 13:45:00,92.3,64.5,30.03,North,360,15.0,20.0,40,0.00,,---,0.00,VWS V14.00,2013-09-10 19:45:00,
2013-09-10 13:51:00,92.2,62.2,30.02,North,360,13.0,20.0,37,0.00,,---,0.00,VWS V14.00,2013-09-10 19:51:00,
2013-09-10 13:56:00,92.1,62.1,30.02,North,360,11.0,20.0,37,0.00,,---,0.00,VWS V14.00,2013-09-10 19:56:00,
2013-09-10 14:00:00,92.0,62.8,30.02,North,360,12.0,20.0,38,0.00,,---,0.00,VWS V14.00,2013-09-10 20:00:00,
2013-09-10 14:05:00,91.9,61.9,30.02,North,360,14.0,14.0,37,0.00,,---,0.00,VWS V14.00,2013-09-10 20:05:00,
2013-09-10 14:10:00,92.4,60.0,30.02,North,360,10.0,19.0,34,0.00,,---,0.00,VWS V14.00,2013-09-10 20:10:00,
2013-09-10 14:15:00,92.5,60.9,30.02,North,360,7.0,19.0,35,0.00,,---,0.00,VWS V14.00,2013-09-10 20:15:00,
2013-09-10 14:20:00,92.1,60.5,30.01,North,360,17.0,21.0,35,0.00,,---,0.00,VWS V14.00,2013-09-10 20:20:00,
2013-09-10 14:25:00,91.5,63.1,30.02,North,360,12.0,21.0,39,0.00,,---,0.00,VWS V14.00,2013-09-10 20:25:00,
2013-09-10 14:30:00,91.7,63.2,30.01,North,360,11.0,21.0,39,0.00,,---,0.00,VWS V14.00,2013-09-10 20:30:00,
2013-09-10 14:35:00,91.4,62.2,30.01,North,360,12.0,18.0,38,0.00,,---,0.00,VWS V14.00,2013-09-10 20:35:00,
2013-09-10 14:40:00,91.7,61.8,30.01,North,360,10.0,18.0,37,0.00,,---,0.00,VWS V14.00,2013-09-10 20:40:00,
2013-09-10 14:45:00,91.6,63.9,30.01,North,360,9.0,18.0,40,0.00,,---,0.00,VWS V14.00,2013-09-10 20:45:00,
2013-09-10 14:50:00,91.3,62.2,30.01,North,360,12.0,19.0,38,0.00,,---,0.00,VWS V14.00,2013-09-10 20:50:00,
2013-09-10 14:55:00,91.2,63.5,30.01,North,360,15.0,19.0,40,0.00,,---,0.00,VWS V14.00,2013-09-10 20:55:00,
2013-09-10 15:00:00,90.8,63.2,30.00,North,360,12.0,19.0,40,0.00,,---,0.00,VWS V14.00,2013-09-10 21:00:00,
2013-09-10 15:05:00,91.3,65.0,30.00,North,360,12.0,15.0,42,0.00,,---,0.00,VWS V14.00,2013-09-10 21:05:00,
2013-09-10 15:10:00,91.0,64.7,30.00,North,360,7.0,16.0,42,0.00,,---,0.00,VWS V14.00,2013-09-10 21:10:00,
2013-09-10 15:15:00,90.9,65.3,30.00,North,360,10.0,18.0,43,0.00,,---,0.00,VWS V14.00,2013-09-10 21:15:00,
2013-09-10 15:20:00,90.4,65.5,29.99,North,360,9.0,20.0,44,0.00,,---,0.00,VWS V14.00,2013-09-10 21:20:00,
2013-09-10 15:25:00,90.4,66.2,29.99,North,360,12.0,20.0,45,0.00,,---,0.00,VWS V14.00,2013-09-10 21:25:00,
2013-09-10 15:30:00,90.8,66.6,29.99,North,360,9.0,20.0,45,0.00,,---,0.00,VWS V14.00,2013-09-10 21:30:00,
2013-09-10 15:35:00,91.2,66.3,29.99,North,360,11.0,16.0,44,0.00,,---,0.00,VWS V14.00,2013-09-10 21:35:00,
2013-09-10 15:40:00,91.7,66.7,29.99,North,360,14.0,17.0,44,0.00,,---,0.00,VWS V14.00,2013-09-10 21:40:00,
2013-09-10 15:45:00,90.8,65.9,29.99,North,360,18.0,22.0,44,0.00,,---,0.00,VWS V14.00,2013-09-10 21:45:00,
2013-09-10 15:50:00,90.0,65.8,29.99,North,360,11.0,22.0,45,0.00,,---,0.00,VWS V14.00,2013-09-10 21:50:00,
2013-09-10 15:55:00,89.5,65.4,29.99,North,360,11.0,22.0,45,0.00,,---,0.00,VWS V14.00,2013-09-10 21:55:00,
2013-09-10 16:00:00,90.0,66.5,29.99,North,360,13.0,22.0,46,0.00,,---,0.00,VWS V14.00,2013-09-10 22:00:00,
2013-09-10 16:05:00,90.2,66.0,29.99,North,360,10.0,17.0,45,0.00,,---,0.00,VWS V14.00,2013-09-10 22:05:00,
2013-09-10 16:10:00,89.9,65.7,29.99,North,360,17.0,23.0,45,0.00,,---,0.00,VWS V14.00,2013-09-10 22:10:00,
2013-09-10 16:15:00,89.5,66.0,29.99,North,360,12.0,23.0,46,0.00,,---,0.00,VWS V14.00,2013-09-10 22:15:00,
2013-09-10 16:20:00,89.7,65.6,29.99,North,360,14.0,23.0,45,0.00,,---,0.00,VWS V14.00,2013-09-10 22:20:00,
2013-09-10 16:25:00,89.5,64.7,29.99,North,360,12.0,23.0,44,0.00,,---,0.00,VWS V14.00,2013-09-10 22:25:00,
2013-09-10 16:30:00,89.2,63.8,29.99,North,360,18.0,23.0,43,0.00,,---,0.00,VWS V14.00,2013-09-10 22:30:00,
2013-09-10 16:35:00,89.2,63.1,29.99,North,360,15.0,18.0,42,0.00,,---,0.00,VWS V14.00,2013-09-10 22:35:00,
2013-09-10 16:40:00,89.0,63.0,29.99,North,360,13.0,18.0,42,0.00,,---,0.00,VWS V14.00,2013-09-10 22:40:00,
2013-09-10 16:45:00,88.8,62.1,29.99,North,360,13.0,19.0,41,0.00,,---,0.00,VWS V14.00,2013-09-10 22:45:00,
2013-09-10 16:50:00,88.8,62.1,29.99,North,360,12.0,19.0,41,0.00,,---,0.00,VWS V14.00,2013-09-10 22:50:00,
2013-09-10 16:55:00,88.9,62.9,29.99,North,360,7.0,19.0,42,0.00,,---,0.00,VWS V14.00,2013-09-10 22:55:00,
2013-09-10 17:00:00,89.2,63.1,29.99,North,360,8.0,19.0,42,0.00,,---,0.00,VWS V14.00,2013-09-10 23:00:00,
2013-09-10 17:05:00,89.1,63.0,29.99,North,360,11.0,20.0,42,0.00,,---,0.00,VWS V14.00,2013-09-10 23:05:00,
2013-09-10 17:10:00,88.8,62.1,29.99,North,360,14.0,20.0,41,0.00,,---,0.00,VWS V14.00,2013-09-10 23:10:00,
2013-09-10 17:15:00,88.8,62.1,29.99,North,360,12.0,21.0,41,0.00,,---,0.00,VWS V14.00,2013-09-10 23:15:00,
2013-09-10 17:20:00,88.5,61.8,29.99,North,360,10.0,21.0,41,0.00,,---,0.00,VWS V14.00,2013-09-10 23:20:00,
2013-09-10 17:25:00,88.5,62.5,29.99,North,360,13.0,21.0,42,0.00,,---,0.00,VWS V14.00,2013-09-10 23:25:00,
2013-09-10 17:30:00,88.3,63.0,29.99,North,360,13.0,21.0,43,0.00,,---,0.00,VWS V14.00,2013-09-10 23:30:00,
2013-09-10 17:35:00,88.2,62.2,30.00,North,360,9.0,14.0,42,0.00,,---,0.00,VWS V14.00,2013-09-10 23:35:00,
2013-09-10 17:40:00,88.2,62.2,30.00,North,360,15.0,19.0,42,0.00,,---,0.00,VWS V14.00,2013-09-10 23:40:00,
2013-09-10 17:45:00,88.1,62.1,30.00,North,360,16.0,19.0,42,0.00,,---,0.00,VWS V14.00,2013-09-10 23:45:00,
2013-09-10 17:50:00,87.9,62.6,30.00,North,360,9.0,19.0,43,0.00,,---,0.00,VWS V14.00,2013-09-10 23:50:00,
2013-09-10 17:55:00,87.6,63.0,30.00,North,360,8.0,19.0,44,0.00,,---,0.00,VWS V14.00,2013-09-10 23:55:00,
2013-09-10 18:00:00,87.4,62.8,30.00,North,360,10.0,19.0,44,0.00,,---,0.00,VWS V14.00,2013-09-11 00:00:00,
2013-09-10 18:05:00,87.2,63.3,30.00,North,360,11.0,16.0,45,0.00,,---,0.00,VWS V14.00,2013-09-11 00:05:00,
2013-09-10 18:10:00,87.0,63.1,30.00,North,360,10.0,16.0,45,0.00,,---,0.00,VWS V14.00,2013-09-11 00:10:00,
2013-09-10 18:15:00,86.9,63.7,30.00,North,360,7.0,16.0,46,0.00,,---,0.00,VWS V14.00,2013-09-11 00:15:00,
2013-09-10 18:20:00,86.7,63.5,30.00,North,360,6.0,16.0,46,0.00,,---,0.00,VWS V14.00,2013-09-11 00:20:00,
2013-09-10 18:25:00,86.5,63.9,30.00,North,360,6.0,16.0,47,0.00,,---,0.00,VWS V14.00,2013-09-11 00:25:00,
2013-09-10 18:30:00,86.3,63.7,30.00,North,360,6.0,16.0,47,0.00,,---,0.00,VWS V14.00,2013-09-11 00:30:00,
2013-09-10 18:35:00,86.2,63.6,30.00,North,360,6.0,10.0,47,0.00,,---,0.00,VWS V14.00,2013-09-11 00:35:00,
2013-09-10 18:40:00,86.0,62.8,30.01,North,360,5.0,10.0,46,0.00,,---,0.00,VWS V14.00,2013-09-11 00:40:00,
2013-09-10 18:45:00,85.7,62.6,30.01,North,360,4.0,10.0,46,0.00,,---,0.00,VWS V14.00,2013-09-11 00:45:00,
2013-09-10 18:50:00,85.5,62.4,30.01,North,360,6.0,10.0,46,0.00,,---,0.00,VWS V14.00,2013-09-11 00:50:00,
2013-09-10 18:55:00,85.3,62.2,30.01,North,360,6.0,10.0,46,0.00,,---,0.00,VWS V14.00,2013-09-11 00:55:00,
2013-09-10 19:00:00,85.1,61.4,30.01,North,360,6.0,10.0,45,0.00,,---,0.00,VWS V14.00,2013-09-11 01:00:00,
2013-09-10 19:05:00,84.9,61.2,30.01,North,360,5.0,10.0,45,0.00,,---,0.00,VWS V14.00,2013-09-11 01:05:00,
2013-09-10 19:10:00,84.8,61.1,30.01,North,360,6.0,11.0,45,0.00,,---,0.00,VWS V14.00,2013-09-11 01:10:00,
2013-09-10 19:15:00,84.7,61.0,30.01,North,360,6.0,11.0,45,0.00,,---,0.00,VWS V14.00,2013-09-11 01:15:00,
2013-09-10 19:20:00,84.7,61.0,30.01,North,360,7.0,11.0,45,0.00,,---,0.00,VWS V14.00,2013-09-11 01:20:00,
2013-09-10 19:25:00,84.6,60.9,30.01,North,360,5.0,11.0,45,0.00,,---,0.00,VWS V14.00,2013-09-11 01:25:00,
2013-09-10 19:30:00,84.4,60.8,30.01,North,360,5.0,11.0,45,0.00,,---,0.00,VWS V14.00,2013-09-11 01:30:00,
2013-09-10 19:35:00,84.2,61.2,30.01,North,360,6.0,6.0,46,0.00,,---,0.00,VWS V14.00,2013-09-11 01:35:00,
2013-09-10 19:40:00,84.0,61.0,30.01,North,360,3.0,7.0,46,0.00,,---,0.00,VWS V14.00,2013-09-11 01:40:00,
2013-09-10 19:45:00,83.8,60.8,30.01,North,360,5.0,7.0,46,0.00,,---,0.00,VWS V14.00,2013-09-11 01:45:00,
2013-09-10 19:50:00,83.7,60.7,30.02,North,360,5.0,7.0,46,0.00,,---,0.00,VWS V14.00,2013-09-11 01:50:00,
2013-09-10 19:55:00,83.6,61.3,30.02,North,360,3.0,7.0,47,0.00,,---,0.00,VWS V14.00,2013-09-11 01:55:00,
2013-09-10 20:00:00,83.5,61.2,30.02,North,360,4.0,7.0,47,0.00,,---,0.00,VWS V14.00,2013-09-11 02:00:00,
2013-09-10 20:05:00,83.2,60.9,30.02,North,360,4.0,6.0,47,0.00,,---,0.00,VWS V14.00,2013-09-11 02:05:00,
2013-09-10 20:10:00,82.9,60.6,30.02,North,360,4.0,6.0,47,0.00,,---,0.00,VWS V14.00,2013-09-11 02:10:00,
2013-09-10 20:15:00,82.7,61.0,30.02,North,360,3.0,6.0,48,0.00,,---,0.00,VWS V14.00,2013-09-11 02:15:00,
2013-09-10 20:20:00,82.6,60.9,30.03,North,360,3.0,6.0,48,0.00,,---,0.00,VWS V14.00,2013-09-11 02:20:00,
2013-09-10 20:25:00,82.5,60.8,30.03,North,360,5.0,6.0,48,0.00,,---,0.00,VWS V14.00,2013-09-11 02:25:00,
2013-09-10 20:30:00,82.4,60.8,30.03,North,360,4.0,6.0,48,0.00,,---,0.00,VWS V14.00,2013-09-11 02:30:00,
2013-09-10 20:35:00,82.4,60.8,30.03,North,360,4.0,5.0,48,0.00,,---,0.00,VWS V14.00,2013-09-11 02:35:00,
2013-09-10 20:40:00,82.3,60.7,30.03,North,360,5.0,6.0,48,0.00,,---,0.00,VWS V14.00,2013-09-11 02:40:00,
2013-09-10 20:45:00,82.2,61.2,30.03,North,360,4.0,6.0,49,0.00,,---,0.00,VWS V14.00,2013-09-11 02:45:00,
2013-09-10 20:50:00,82.0,60.4,30.03,North,360,5.0,7.0,48,0.00,,---,0.00,VWS V14.00,2013-09-11 02:50:00,
2013-09-10 20:55:00,81.8,60.2,30.03,North,360,5.0,7.0,48,0.00,,---,0.00,VWS V14.00,2013-09-11 02:55:00,
2013-09-10 21:00:00,81.5,59.9,30.03,North,360,4.0,7.0,48,0.00,,---,0.00,VWS V14.00,2013-09-11 03:00:00,
2013-09-10 21:05:00,81.3,60.3,30.03,North,360,6.0,6.0,49,0.00,,---,0.00,VWS V14.00,2013-09-11 03:05:00,
2013-09-10 21:10:00,81.1,60.2,30.04,North,360,4.0,6.0,49,0.00,,---,0.00,VWS V14.00,2013-09-11 03:10:00,
2013-09-10 21:15:00,81.1,60.7,30.04,North,360,5.0,7.0,50,0.00,,---,0.00,VWS V14.00,2013-09-11 03:15:00,
2013-09-10 21:20:00,81.1,61.3,30.04,North,360,4.0,7.0,51,0.00,,---,0.00,VWS V14.00,2013-09-11 03:20:00,
2013-09-10 21:25:00,81.0,61.2,30.04,North,360,4.0,7.0,51,0.00,,---,0.00,VWS V14.00,2013-09-11 03:25:00,
2013-09-10 21:30:00,81.0,61.7,30.04,North,360,7.0,8.0,52,0.00,,---,0.00,VWS V14.00,2013-09-11 03:30:00,
2013-09-10 21:35:00,80.9,61.6,30.04,North,360,5.0,7.0,52,0.00,,---,0.00,VWS V14.00,2013-09-11 03:35:00,
2013-09-10 21:40:00,80.7,61.5,30.04,North,360,6.0,7.0,52,0.00,,---,0.00,VWS V14.00,2013-09-11 03:40:00,
2013-09-10 21:45:00,80.6,61.4,30.04,North,360,5.0,8.0,52,0.00,,---,0.00,VWS V14.00,2013-09-11 03:45:00,
2013-09-10 21:50:00,80.4,61.7,30.04,North,360,4.0,9.0,53,0.00,,---,0.00,VWS V14.00,2013-09-11 03:50:00,
2013-09-10 21:55:00,80.3,61.6,30.04,North,360,5.0,9.0,53,0.00,,---,0.00,VWS V14.00,2013-09-11 03:55:00,
2013-09-10 22:00:00,80.2,62.1,30.04,North,360,5.0,9.0,54,0.00,,---,0.00,VWS V14.00,2013-09-11 04:00:00,
2013-09-10 22:01:00,80.2,62.1,30.05,North,360,4.0,9.0,54,0.00,,---,0.00,VWS V14.00,2013-09-11 04:01:00,
2013-09-10 22:06:00,80.2,62.1,30.05,North,360,6.0,7.0,54,0.00,,---,0.00,VWS V14.00,2013-09-11 04:06:00,
2013-09-10 22:11:00,80.5,62.3,30.05,North,360,6.0,9.0,54,0.00,,---,0.00,VWS V14.00,2013-09-11 04:11:00,
2013-09-10 22:16:00,80.9,62.7,30.05,North,360,7.0,11.0,54,0.00,,---,0.00,VWS V14.00,2013-09-11 04:16:00,
2013-09-10 22:21:00,80.9,62.7,30.05,North,360,7.0,11.0,54,0.00,,---,0.00,VWS V14.00,2013-09-11 04:21:00,
2013-09-10 22:26:00,80.9,62.7,30.05,North,360,5.0,11.0,54,0.00,,---,0.00,VWS V14.00,2013-09-11 04:26:00,
2013-09-10 22:31:00,80.8,62.6,30.05,North,360,4.0,11.0,54,0.00,,---,0.00,VWS V14.00,2013-09-11 04:31:00,
2013-09-10 22:36:00,80.6,62.4,30.05,North,360,5.0,6.0,54,0.00,,---,0.00,VWS V14.00,2013-09-11 04:36:00,
2013-09-10 22:41:00,80.5,62.9,30.05,North,360,6.0,9.0,55,0.00,,---,0.00,VWS V14.00,2013-09-11 04:41:00,
2013-09-10 22:46:00,80.5,62.9,30.05,North,360,6.0,10.0,55,0.00,,---,0.00,VWS V14.00,2013-09-11 04:46:00,
2013-09-10 22:51:00,80.4,62.8,30.05,North,360,5.0,10.0,55,0.00,,---,0.00,VWS V14.00,2013-09-11 04:51:00,
2013-09-10 22:56:00,80.0,62.9,30.06,North,360,5.0,10.0,56,0.00,,---,0.00,VWS V14.00,2013-09-11 04:56:00,
2013-09-10 23:01:00,79.8,62.7,30.06,North,360,5.0,10.0,56,0.00,,---,0.00,VWS V14.00,2013-09-11 05:01:00,
2013-09-10 23:06:00,79.5,63.0,30.06,North,360,6.0,7.0,57,0.00,,---,0.00,VWS V14.00,2013-09-11 05:06:00,
2013-09-10 23:11:00,79.4,62.9,30.06,North,360,6.0,9.0,57,0.00,,---,0.00,VWS V14.00,2013-09-11 05:11:00,
2013-09-10 23:16:00,79.4,63.3,30.05,North,360,5.0,9.0,58,0.00,,---,0.00,VWS V14.00,2013-09-11 05:16:00,
2013-09-10 23:20:00,79.1,63.1,30.06,North,360,6.0,9.0,58,0.00,,---,0.00,VWS V14.00,2013-09-11 05:20:00,
2013-09-10 23:25:00,78.9,63.4,30.06,North,360,5.0,9.0,59,0.00,,---,0.00,VWS V14.00,2013-09-11 05:25:00,
2013-09-10 23:30:00,78.8,63.3,30.06,North,360,6.0,9.0,59,0.00,,---,0.00,VWS V14.00,2013-09-11 05:30:00,
2013-09-10 23:35:00,78.7,63.7,30.06,North,360,5.0,7.0,60,0.00,,---,0.00,VWS V14.00,2013-09-11 05:35:00,
2013-09-10 23:40:00,78.6,63.6,30.06,North,360,4.0,7.0,60,0.00,,---,0.00,VWS V14.00,2013-09-11 05:40:00,
2013-09-10 23:45:00,78.5,63.5,30.06,North,360,5.0,7.0,60,0.00,,---,0.00,VWS V14.00,2013-09-11 05:45:00,
2013-09-10 23:50:00,78.4,63.8,30.06,North,360,4.0,7.0,61,0.00,,---,0.00,VWS V14.00,2013-09-11 05:50:00,
2013-09-10 23:55:00,78.1,63.6,30.06,North,360,5.0,7.0,61,0.00,,---,0.00,VWS V14.00,2013-09-11 05:55:00,